Location: Albany
(42.6526°N, 73.7562°W)
Time: 05:19:43
(UTC+00:00)

GPS 2-04 Rocket1 - Pass Details

Date: 19 November 2019
Orbit: 419 x 552 km, 35.6° (Epoch: 13 December)

Event Time Altitude Azimuth Distance (km) Brightness Sun altitude
Rises 22:42:31 0° 239° (WSW) 2,406 7.7 -13.5°
Reaches altitude 10° 22:44:59 10° 223° (SW) 1,520 6.0 -13.9°
Maximum altitude 22:47:41 22° 171° (S) 988 4.2 -14.4°
Enters shadow 22:49:23 15° 132° (SE) 1,215 4.3 -14.7°
